DECAYED

STARLINK-1092, 44969 (Decayed)

Orbit data source: Space-Track

STARLINK-1092, 44969 was a payload satellite owned by SpaceX/Seattle (US) in LEO that was launched on Tue, 07 Jan 2020 UTC via an FALCON 9 launch vehicle from the Air Force Eastern Test Range (AFETR). Payload-class satellites include a variety of spacecraft equipped with specific instruments for various scientific and technological missions. These include communications satellites like Starlink; space stations such as the ISS; scientific satellites like the Hubble; Earth observation satellites from companies like Planet Labs, Umbra, and HawkEye 360; GPS; miniature CubeSats for education and research; and military/defense satellites.

Not visible in the next 10 days
Identifier
44969, 2020-001BH
Orbit
Decayed
Country
Flag of USUS
Related business
Manufacturer
SpaceX/Seattle
Mission
Decayed Commercial Communications
Bus & Motor
STARLINK, Unknown motor
Mass
260 kg wet, ~248 kg dry
Launch date (UTC)
2020-01-07 (6 years ago)
Launch vehicle
FALCON 9
Launch site
Air Force Eastern Test Range (AFETR)
Object type
Payload
Rocket body
Debris
Shape & HBR
Box + 1 Pan, 10.1 m
Radar Cross Section
13.562 m², Large (>1 m²)

Expand to show TLE details & history
Last TLE update: 5 months ago

TLE from 5 months ago
0 STARLINK-1092
1 44969U 20001BH  25200.56090484  .10725070  12609-4  18771-3 0  9991
2 44969  53.0178 187.6613 0005178 294.8858 169.1749 16.47535246306420
Epoch: 2025-07-19T13:27Z
TLE epoch observation values (Epoch: 2025-07-19T13:27:42.178Z)
Latitude
50.94859°
Longitude
160.78474°
Altitude
155.121 km
Speed
7.818 km/s
True Right ascension
20h 01m 13s
True Declination
50° 45' 53"
Sunlit
Object was in full shadow at epoch
Visualization orbit readout
Latitude
Unknown
Longitude
Unknown
Altitude
Unknown
Speed
Unknown
Apparent Right ascension
Unknown
Apparent Declination
Unknown
Sunlit
N/A
Visualization observer readout
Local Sidereal Time
02:35:38
Azimuth
Unknown
Elevation
Unknown
Doppler factor
Unknown
Orbital elements
Apogee altitude
149.506 km
Perigee altitude
142.749 km
Semi-major axis
6,524.264 km
Eccentricity
0.00052
Inclination
53.0178°
RAAN
187.6613°
Arg. of periapsis
294.8858°
True anomaly
169.18604°
Mean anomaly
169.1749°
Eccentric anomaly
169.18047°
Mean motion
4.11856 °/min
Orbital period
87.41 mins
BSTAR
0.00018771
Loading maneuver chart data...
Computing Atmospheric mass density...

Documentation

Showing up to 5 results
|